Home > Weather > Faro > Past weeks

Flag for Portugal Past Weather in Faro, Portugal — Yesterday and Last 2 Weeks

Now
70 °F

Clear.


Feels Like: 70 °F
Forecast: 66 / 81 °F
Wind: 3 mph from Northeast

Location: Faro / Aeroporto

Current Time: Jul 29, 2016 at 5:02:25 AM

Latest Report: Jul 29, 2016 at 4:30 AM


Visibility: 10 mi

Pressure: 29.92 "Hg

Humidity: 78%

Dew Point: 63 °F

Location of FaroLocation

Past Weather in Faro — Graph

°F

Faro Temperature Yesterday

Maximum temperature yesterday: 82 °F (at 5:30 PM)
Minimum temperature yesterday: 70 °F (at 3:00 AM)
Average temperature yesterday: 75 °F

High & Low Weather Summary for the Past Weeks

 TemperatureHumidityPressure
High95 °F (Jul 21, 6:30 PM)100% (Jul 28, 5:00 AM)30.07 "Hg (Jul 28, 5:00 AM)
Low68 °F (Jul 22, 4:00 AM)25% (Jul 21, 10:00 AM)29.92 "Hg (Jul 17, 4:30 PM)
Average79 °F59%29.97 "Hg
* Reported Jul 14 4:00 AM — Jul 29 4:00 AM, Faro, Weather by CustomWeather, © 2016

Note: Actual official high and low records may vary slightly from our data, if they occured in-between our weather recording intervals... More about our weather records

Advertising

Faro Weather History for the Previous 24 Hours

Scroll right to see more
 ConditionsComfort  
Time TempWeatherWind HumidityBarometerVisibility
4:00 AM
Fri, Jul 29
73 °FClear.5 mph74%29.92 "Hg10 mi
3:30 AM73 °FPassing clouds.3 mph78%29.92 "HgN/A
3:00 AM73 °FClear.3 mph69%29.92 "Hg10 mi
2:30 AM73 °FClear.2 mph65%29.92 "Hg10 mi
2:00 AM73 °FClear.6 mph69%29.92 "Hg10 mi
1:30 AM73 °FClear.6 mph69%29.92 "Hg10 mi
1:00 AM72 °FClear.2 mph78%29.95 "Hg10 mi
12:30 AM73 °FClear.2 mph74%29.95 "Hg10 mi
12:00 AM75 °FClear.3 mph69%29.95 "Hg10 mi
11:30 PM
Thu, Jul 28
77 °FClear.5 mph65%29.95 "Hg10 mi
11:00 PM77 °FPassing clouds.5 mph65%29.95 "HgN/A
10:30 PM77 °FPassing clouds.3 mph69%29.95 "HgN/A
10:00 PM75 °FPassing clouds.3 mph78%29.95 "HgN/A
9:30 PM75 °FPassing clouds.3 mph78%29.92 "HgN/A
9:00 PM75 °FSunny.6 mph83%29.92 "Hg10 mi
8:30 PM75 °FSunny.8 mph78%29.92 "Hg10 mi
8:00 PM75 °FSunny.8 mph78%29.92 "Hg10 mi
7:30 PM77 °FPassing clouds.5 mph74%29.95 "HgN/A
7:00 PM77 °FPassing clouds.5 mph69%29.95 "HgN/A
6:30 PM79 °FPassing clouds.6 mph61%29.95 "HgN/A
6:00 PM81 °FPassing clouds.6 mph58%29.95 "HgN/A
5:30 PM82 °FPassing clouds.6 mph55%29.95 "HgN/A
5:00 PM81 °FPassing clouds.5 mph66%29.95 "HgN/A
4:30 PM81 °FSunny.3 mph66%29.95 "Hg10 mi
4:00 PM79 °FSunny.3 mph70%29.98 "Hg10 mi
3:30 PM75 °FPassing clouds.7 mph78%29.98 "HgN/A
3:00 PM77 °FPassing clouds.8 mph74%30.01 "HgN/A
2:30 PM79 °FPassing clouds.8 mph70%30.01 "HgN/A
2:00 PM79 °FPassing clouds.8 mph70%30.01 "HgN/A
1:30 PM77 °FPassing clouds.9 mph74%30.01 "HgN/A
1:00 PM77 °FPassing clouds.9 mph74%30.01 "HgN/A
12:30 PM77 °FPassing clouds.10 mph74%30.01 "HgN/A
12:00 PM77 °FPassing clouds.10 mph74%30.01 "HgN/A
11:30 AM75 °FScattered clouds.13 mph78%30.01 "HgN/A
11:00 AM75 °FScattered clouds.14 mph78%30.01 "HgN/A
10:30 AM75 °FScattered clouds.14 mph78%30.01 "HgN/A
10:00 AM75 °FScattered clouds.13 mph78%29.98 "HgN/A
9:30 AM75 °FScattered clouds.13 mph78%29.98 "HgN/A
9:00 AM75 °FScattered clouds.12 mph83%29.98 "HgN/A
8:30 AM73 °FPartly sunny.9 mph89%29.98 "HgN/A
8:00 AM72 °FPartly sunny.9 mph94%29.98 "Hg6 mi
7:30 AM72 °FPassing clouds.8 mph94%29.95 "Hg5 mi
7:00 AM72 °FClear.5 mph94%29.95 "Hg10 mi
6:30 AM72 °FClear.5 mph94%29.95 "Hg10 mi
6:00 AM70 °FClear.5 mph100%29.95 "Hg10 mi
5:30 AM70 °FClear.6 mph100%29.95 "Hg10 mi
5:00 AM70 °FClear.6 mph100%29.95 "Hg10 mi
Weather by CustomWeather, © 2016

See weather overviewHow to use our weather pages